AirNav   Air Wisconsin Up To $57,000 Bonus
 
 1121 users online  

10D Winsted Municipal Airport
Winsted, Minnesota, USA

GOING TO WINSTED?


FAA INFORMATION EFFECTIVE 11 AUGUST 2022

Location

FAA Identifier: 10D
Lat/Long: 44-57-13.8600N 094-03-55.4050W
44-57.231000N 094-03.923417W
44.9538500,-94.0653903
(estimated)
Elevation: 1030 ft. / 314 m (estimated)
Variation: 04E (1985)
From city: 1 mile SW of WINSTED, MN
Time zone: UTC -5 (UTC -6 during Standard Time)
Zip code: 55395

Airport Operations

Airport use: Open to the public
Activation date: 11/1963
Control tower: no
ARTCC: MINNEAPOLIS CENTER
FSS: PRINCETON FLIGHT SERVICE STATION
NOTAMs facility: PNM (NOTAM-D service available)
Attendance: UNATNDD
Wind indicator: lighted
Segmented circle: no
Lights: SS-SR
Beacon: white-green (lighted land airport)
Operates sunset to sunrise.

Airport Communications

CTAF: 122.9
WX AWOS-3 at GYL (12 nm S): 119.625 (320-864-5830)
WX AWOS-3 at HCD (15 nm SW): 118.525 (320-587-3343)
WX AWOS-3PT at CFE (15 nm NE): 120.45 (763-684-0762)
WX AWOS-3 at MGG (17 nm N): 128.325 (320-963-3300)

Nearby radio navigation aids

VOR radial/distance  VOR name  Freq  Var
DWNr109/18.3DARWIN VORTAC109.0007E
FCMr285/27.6FLYING CLOUD VOR/DME117.7001E
GEPr243/31.5GOPHER VORTAC117.3006E
MSPr274/35.4MINNEAPOLIS VOR/DME115.3002E
STCr177/35.7ST CLOUD VOR/DME112.1003E

Airport Services

Fuel available: 100LL
100LL:FUEL AVBL H24 VIA CREDIT CARD.
Parking: tiedowns
Airframe service: NONE
Powerplant service: NONE
Bottled oxygen: NONE
Bulk oxygen: NONE

Runway Information

Runway 9/27

Dimensions: 3248 x 200 ft. / 990 x 61 m
Surface: turf, in good condition
Runway edge lights: low intensity
SVRL BKN OR BENT OVR.
Runway edge markings: YELLOW CONES.
RUNWAY 9  RUNWAY 27
Latitude: 44-57.231000N44-57.231000N
Longitude: 094-04.299833W094-03.547000W
Elevation: 1030.0 ft.1030.0 ft.
Traffic pattern: leftleft
Runway heading: 086 magnetic, 090 true266 magnetic, 270 true
Obstructions: 16 ft. road, 530 ft. from runway, 33:1 slope to clear54 ft. trees, 666 ft. from runway, 159 ft. left of centerline, 12:1 slope to clear

Airport Ownership and Management from official FAA records

Ownership: Publicly-owned
Owner: CITY OF WINSTED
PO BOX 126
WINSTED, MN 55395-0126
Phone 320-485-2366
Manager: DAVID MEYER
PO BOX 126
WINSTED, MN 55395-0126
Phone 320-485-2201
OR 612-986-2184.

Airport Operational Statistics

Aircraft based on the field: 24
Single engine airplanes: 23
Ultralights: 1
    
Aircraft operations: avg 37/day *
74% local general aviation
26% transient general aviation
* for 12-month period ending 30 April 2018

Additional Remarks

ULTRALIGHT ACT ON & INVOF ARPT IN LWR PAT.
PAJA ON FLD.
FOR CD CTC MINNEAPOLIS APCH AT 612-726-9086.

Instrument Procedures

There are no published instrument procedures at 10D.

Some nearby airports with instrument procedures:

KGYL - Glencoe Municipal Airport (12 nm S)
KHCD - Hutchinson Municipal Airport-Butler Field (15 nm SW)
KCFE - Buffalo Municipal Airport (15 nm NE)
KMGG - Maple Lake Municipal Airport-Bill Mavencamp Sr Field (17 nm N)
KLJF - Litchfield Municipal Airport (21 nm NW)
 
Loc | Ops | Rwys | IFR | FBO | Links
Com | Nav | Svcs | Stats | Notes
Area around 10D (Winsted Municipal Airport)
 
Road maps at: MapQuest Bing Google
 
Aerial photo
WARNING: Photo may not be current or correct
Aerial photo of 10D (Winsted Municipal Airport)
Photo by R. Johnson
Photo taken 16-Nov-2009

Do you have a better or more recent aerial photo of Winsted Municipal Airport that you would like to share? If so, please send us your photo.

 
Sectional chart

 
Airport distance calculator
Flying to Winsted Municipal Airport? Find the distance to fly.

From to 10D

Sunrise and sunset
Times for 13-Aug-2022
 Local
(UTC-5)
 Zulu
(UTC)
Morning civil twilight05:4510:45
Sunrise06:1711:17
Sunset20:2501:25
Evening civil twilight20:5801:58

Current date and time
Zulu (UTC)  13-Aug-2022 21:14:04
Local (UTC-5)  13-Aug-2022 16:14:04
 
METAR
KGYL 
12nm S 
132055Z AUTO 36006KT 10SM OVC028 21/16 A3002 RMK AO2 T02100160
KHCD 
14nm W 
132055Z AUTO 33008KT 10SM OVC027 22/17 A3005 RMK AO2 T02150173
KCFE 
15nm NE 
132055Z AUTO 03009KT 10SM OVC027 20/16 A3003 RMK AO2
KLJF 
20nm NW 
132055Z AUTO 35009KT 10SM OVC027 22/17 A3004 RMK AO2
TAF
NOTAMs
Click for the latest NOTAMs
NOTAMs are issued by the DoD/FAA and will open in a separate window not controlled by AirNav.

 

 
 

FBO, Fuel Providers, and Aircraft Ground Support

  
 Business Name 
 
 Contact 
 
 Services / Description 
 
Fuel Prices
 
Comments
  
City of Winsted 320-485-2201
no information available

If you are affiliated with City of Winsted and would like to show here your services, contact info, web link, logo, and more, click here
100LL
SS $6.20 
 Updated 02-Aug-2022
 
   write
SS=Self service
Update Fuel Prices
 

Would you like to see your business listed on this page?

 If your business provides an interesting product or service to pilots, flight crews, aircraft, or users of the Winsted Municipal Airport, you should consider listing it here.  To start the listing process, click on the button below
 
Add a business
 

Other Pages about Winsted Municipal Airport

Update a link
 
Copyright © AirNav, LLC. All rights reserved. Privacy Policy  Contact